Lucknow, India

5:48 PM IST on February 11, 2016 (GMT +0530)
Lucknow

Weather History for VILK - June, 2012

Change the Weather History Date:

Wednesday, June 20, 2012

  Actual Average Record
Temperature  
Mean Temperature 95 °F -  
Max Temperature 108 °F 91 °F 113 °F (2005)
Min Temperature 82 °F 78 °F 72 °F (2014)
Cooling Degree Days 30    
Growing Degree Days 45 (Base 50)    
Moisture  
Dew Point 72 °F    
Average Humidity 45    
Maximum Humidity 70    
Minimum Humidity 18    
Precipitation  
Precipitation 0.00 in - - ()
Sea Level Pressure  
Sea Level Pressure 29.32 in    
Wind  
Wind Speed 2 mph ()    
Max Wind Speed 7 mph    
Max Gust Speed -    
Visibility 2.7 miles    
Events      
Averages and records for this station are not official NWS values.
T = Trace of Precipitation, MM = Missing Value Source: Averaged Metar Reports

Daily Weather History Graph

Daily Weather History Graph

Search for Another Location

Airport or City:

Trip Planner

Search our weather history database for the weather conditions in past years. The results will help you decide how hot, cold, wet, or windy it might be!

Date:

Astronomy

Jun. 20, 2012 Rise Set
Actual Time 5:13 AM IST 7:02 PM IST
Civil Twilight 4:47 AM IST 7:29 PM IST
Nautical Twilight 4:15 AM IST 8:00 PM IST
Astronomical Twilight 3:41 AM IST 8:34 PM IST
Moon 5:42 AM IST (6/20) 7:35 PM IST (6/20)
Length of Visible Light 14h 42m
Length of Day
13h 49m
New Moon, 0% of the Moon is Illuminated
Jun 20
New Moon
Jun 27
First Quarter
Jul 4
Full
Jul 11
Last Quarter
Jul 19
New

Hourly Weather History & Observations

Time (IST) Temp. Heat Index Dew Point Humidity Pressure Visibility Wind Dir Wind Speed Gust Speed Precip Events Conditions
12:00 AM 89.6 °F 104.7 °F 78.8 °F 70% 29.39 in 2.5 mi Calm Calm - N/A   Haze
1:00 AM 89.6 °F 104.7 °F 78.8 °F 70% 29.39 in 2.5 mi Calm Calm - N/A   Haze
2:00 AM 89.6 °F 104.7 °F 78.8 °F 70% 29.36 in 2.5 mi Calm Calm - N/A   Haze
2:30 AM 87 °F - 76 °F 63% 29.35 in 2 mi 1.2 mph - -   Haze
3:00 AM 87.8 °F 99.7 °F 77.0 °F 70% 29.36 in 2.5 mi Variable 2.3 mph - N/A   Haze
4:00 AM 86.0 °F 95.1 °F 75.2 °F 70% 29.33 in 2.5 mi Variable 2.3 mph - N/A   Haze
5:00 AM 86.0 °F 95.1 °F 75.2 °F 70% 29.33 in 2.5 mi Calm Calm - N/A   Haze
5:30 AM 86 °F - 76 °F 65% 29.34 in 2 mi Calm Calm - -   Haze
5:30 AM 86.0 °F 95.1 °F 75.2 °F 70% 29.33 in 2.5 mi Calm Calm - N/A   Haze
6:00 AM 86.0 °F 95.1 °F 75.2 °F 70% 29.33 in 2.5 mi Calm Calm - N/A   Haze
7:00 AM 89.6 °F 102.2 °F 77.0 °F 66% 29.36 in 2.5 mi Calm Calm - N/A   Haze
8:00 AM 95.0 °F 104.5 °F 73.4 °F 49% 29.36 in 3.1 mi WNW 4.6 mph - N/A   Haze
8:30 AM 94 °F - 74 °F 42% 29.36 in 2 mi WNW 6.9 mph - -   Haze
8:30 AM 95.0 °F 104.5 °F 73.4 °F 49% 29.36 in 3.1 mi WNW 6.9 mph - N/A   Haze
9:00 AM 95.0 °F 104.5 °F 73.4 °F 49% 29.36 in 3.1 mi Variable 3.5 mph - N/A   Haze
9:30 AM 96.8 °F 107.3 °F 73.4 °F 47% 29.36 in 3.1 mi Variable 3.5 mph - N/A   Haze
10:00 AM 98.6 °F 109.2 °F 73.4 °F 44% 29.36 in 3.1 mi Variable 3.5 mph - N/A   Haze
10:30 AM 102.2 °F 114.4 °F 73.4 °F 40% 29.36 in 3.1 mi Variable 3.5 mph - N/A   Haze
11:00 AM 102.2 °F 114.4 °F 73.4 °F 40% 29.36 in 3.1 mi Variable 3.5 mph - N/A   Haze
11:30 AM 104.0 °F 114.0 °F 71.6 °F 35% 29.33 in 3.1 mi Variable 3.5 mph - N/A   Haze
12:00 PM 104.0 °F 114.0 °F 71.6 °F 35% 29.33 in 3.1 mi Variable 3.5 mph - N/A   Haze
12:30 PM 105.8 °F 116.1 °F 71.6 °F 33% 29.33 in 3.1 mi Variable 3.5 mph - N/A   Haze
1:00 PM 105.8 °F 114.2 °F 69.8 °F 31% 29.33 in 3.1 mi Variable 3.5 mph - N/A   Haze
1:30 PM 105.8 °F 114.2 °F 69.8 °F 31% 29.30 in 3.1 mi NW 4.6 mph - N/A   Haze
2:00 PM 107.6 °F 117.0 °F 69.8 °F 30% 29.30 in 3.1 mi NW 4.6 mph - N/A   Haze
2:30 PM 107.6 °F 115.0 °F 68.0 °F 28% 29.27 in 3.1 mi NW 6.9 mph - N/A   Haze
3:00 PM 107.6 °F 113.2 °F 66.2 °F 26% 29.27 in 3.1 mi WNW 5.8 mph - N/A   Haze
3:30 PM 107.6 °F 113.2 °F 66.2 °F 26% 29.27 in 3.1 mi WNW 5.8 mph - N/A   Haze
4:00 PM 107.6 °F 112.3 °F 64.4 °F 25% 29.24 in 3.1 mi WNW 5.8 mph - N/A   Haze
4:30 PM 107.6 °F 112.3 °F 64.4 °F 25% 29.24 in 3.1 mi NW 4.6 mph - N/A   Haze
5:00 PM 105.8 °F 108.3 °F 62.6 °F 24% 29.24 in 3.1 mi NW 4.6 mph - N/A   Haze
5:30 PM 106 °F - 65 °F 18% 29.24 in 2 mi NW 3.5 mph - -   Haze
5:30 PM 105.8 °F 109.8 °F 64.4 °F 26% 29.24 in 3.1 mi NW 3.5 mph - N/A   Haze
6:00 PM 105.8 °F 109.8 °F 64.4 °F 26% 29.24 in 3.1 mi NW 3.5 mph - N/A   Haze
6:30 PM 104.0 °F 108.9 °F 66.2 °F 29% 29.27 in 3.1 mi Variable 2.3 mph - N/A   Haze
7:00 PM 104.0 °F 110.5 °F 68.0 °F 31% 29.27 in 2.5 mi Variable 2.3 mph - N/A   Haze
7:30 PM 100.4 °F 106.3 °F 68.0 °F 35% 29.27 in 2.5 mi Variable 2.3 mph - N/A   Haze
8:00 PM 100.4 °F 106.3 °F 68.0 °F 35% 29.30 in 2.5 mi ESE 5.8 mph - N/A   Haze
8:30 PM 96 °F - 77 °F 46% 29.38 in 2 mi East 4.6 mph - -   Haze
8:30 PM 96.8 °F 112.2 °F 77.0 °F 53% 29.30 in 2.5 mi East 4.6 mph - N/A   Haze
9:00 PM 95.0 °F 109.7 °F 77.0 °F 56% 29.33 in 2.5 mi Variable 2.3 mph - N/A   Haze
10:00 PM 93.2 °F 107.2 °F 77.0 °F 59% 29.33 in 2.5 mi SE 6.9 mph - N/A   Haze
11:00 PM 91.4 °F 105.1 °F 77.0 °F 63% 29.33 in 2.5 mi SE 4.6 mph - N/A   Haze
11:30 PM 91 °F - 78 °F 57% 29.34 in 2 mi SE 4.6 mph - -   Haze